Probability
0 0 0 3 6 10 10 10 10 3 3 0 0 0 0 0 0 0 0 3 6 3 3 3 3 3 3 3 0 0 0 0 0 0 0 0 0 0 0 0 0 0 0
0 0 0 0 3 6 6 6 6 3 3 3 3 0 0 0 3 0 0 0 3 3 3 3 3 3 3 3 0 0 0 0 0 0 0 0 0 0 0 0 0 0 0
0 0 0 0 0 3 6 3 6 3 3 3 0 0 0 0 0 0 0 0 0 3 3 3 3 3 3 3 0 0 0 0 0 0 0 0 0 0 0 0 0 0 0
0 0 0 0 0 3 3 6 6 3 3 3 0 0 0 0 0 0 0 0 0 0 3 0 0 0 0 0 0 0 0 0 0 0 0 0 0 0 0 0 0 0 0
0 0 0 0 0 3 3 3 3 3 3 3 3 0 0 0 0 0 0 0 0 0 3 3 0 0 0 0 0 0 0 0 0 0 0 0 0 0 0 0 0 0 0
0 0 0 0 0 3 6 6 3 3 3 3 3 3 0 0 0 0 0 0 0 0 0 3 0 0 0 0 0 0 0 0 0 0 0 0 0 0 0 0 0 0 0
0 0 0 0 0 3 6 3 3 3 3 3 3 3 3 0 0 0 0 0 0 0 0 0 0 0 0 0 0 0 0 0 0 0 0 0 0 0 0 0 0 0 0
0 0 0 0 0 3 3 3 3 3 3 3 3 3 3 3 0 0 0 0 0 0 0 0 0 0 0 0 0 0 0 0 0 0 0 0 0 0 0 0 0 0 0
0 0 0 0 0 0 3 3 3 3 3 3 3 3 3 3 3 3 0 0 0 0 0 0 0 0 0 0 0 0 0 0 0 0 0 0 0 0 0 0 0 0 0
0 0 0 0 0 0 0 3 3 3 3 3 3 3 3 3 3 3 3 3 0 0 0 0 0 0 0 0 0 0 0 0 0 0 0 0 0 0 0 0 0 0 0
0 0 0 0 0 0 0 0 0 3 3 3 3 3 3 3 3 3 3 3 3 0 0 0 0 0 0 0 0 0 0 0 0 0 0 0 0 0 0 0 0 0 0
0 0 0 0 0 0 0 0 0 3 3 3 3 3 3 3 3 3 3 3 3 0 0 0 0 0 0 0 0 0 0 0 0 0 0 0 0 0 0 0 0 0 0
0 0 0 0 0 0 0 0 0 0 3 3 3 3 3 3 3 3 3 3 3 0 0 0 0 0 0 0 0 0 0 0 0 0 0 0 0 0 0 0 0 0 0
0 0 0 0 0 0 0 0 0 0 0 3 3 3 3 3 3 3 3 0 0 0 0 0 0 0 0 0 0 0 0 0 0 0 0 0 0 0 0 0 0 0 0
0 0 0 0 0 0 0 0 0 0 0 0 3 3 3 3 3 3 0 0 0 0 0 0 0 0 0 0 0 0 0 0 0 0 0 0 0 0 0 0 0 0 0
0 0 0 0 0 0 0 0 0 0 0 0 0 0 0 0 0 0 0 0 0 0 0 0 0 0 0 0 0 0 0 0 0 0 0 0 0 0 0 0 0 0 0
0 0 0 0 0 0 0 0 0 0 0 0 0 0 0 0 0 0 0 0 0 0 0 0 0 0 0 0 0 0 0 0 0 0 0 0 0 0 0 0 0 0 0
0 0 0 0 0 0 0 0 0 0 0 0 0 0 0 0 0 0 0 0 0 0 0 0 0 0 0 0 0 0 0 0 0 0 0 0 0 0 0 0 0 0 0
0 0 0 0 0 0 0 0 0 0 0 0 0 0 0 0 0 0 0 0 0 0 0 0 0 0 0 0 0 0 0 0 0 0 0 0 0 0 0 0 0 0 0
0 0 0 0 0 0 0 0 0 0 0 0 0 0 0 0 0 0 0 0 0 0 0 0 0 0 0 0 0 0 0 0 0 0 0 0 0 0 0 0 0 0 0
0 0 0 0 0 0 0 0 0 0 0 0 0 0 0 0 0 0 0 0 0 0 0 0 0 0 0 0 0 0 0 0 0 0 0 0 0 0 0 0 0 0 0
0 0 0 0 0 0 0 0 0 0 0 0 0 0 0 0 0 0 0 0 0 0 0 0 0 0 0 0 0 0 0 0 0 0 0 0 0 0 0 0 0 0 0
0 0 0 0 0 0 0 0 0 0 0 0 0 0 0 0 0 0 0 0 0 0 0 0 0 0 0 0 0 0 0 0 0 0 0 0 0 0 0 0 0 0 0
0 0 0 0 0 0 0 0 0 0 0 0 0 0 0 0 0 0 0 0 0 0 0 0 0 0 0 0 0 0 0 0 0 0 0 0 0 0 0 0 0 0 0
0 0 0 0 0 0 0 0 0 0 0 0 0 0 0 0 0 0 0 0 0 0 0 0 0 0 0 0 0 0 0 0 0 0 0 0 0 0 0 0 0 0 0
0 0 0 0 0 0 0 0 0 0 0 0 0 0 0 0 0 0 0 0 0 0 0 0 0 0 0 0 0 0 0 0 0 0 0 0 0 0 0 0 0 0 0
Height
5682 5683 5685 5688 5690 5693 5697 5700 5704 5709 5715 5720 5726 5731 5736 5741 5745 5749 5753 5757 5760 5764 5767 5770 5773 5777 5780 5784 5787 5791 5793 5796 5799 5802 5805 5807 5810 5812 5814 5816 5818 5819 5821
5671 5672 5673 5675 5678 5681 5685 5689 5693 5697 5703 5708 5714 5720 5725 5730 5734 5739 5743 5747 5751 5754 5758 5761 5764 5767 5771 5775 5778 5782 5785 5788 5792 5795 5798 5800 5803 5805 5807 5809 5811 5813 5815
5659 5661 5662 5664 5667 5670 5673 5677 5681 5685 5690 5696 5702 5708 5713 5719 5723 5728 5733 5737 5740 5744 5748 5752 5755 5758 5762 5765 5769 5773 5776 5780 5783 5787 5790 5793 5795 5798 5801 5803 5805 5807 5808
5648 5649 5651 5653 5655 5658 5661 5664 5668 5673 5678 5683 5690 5696 5703 5708 5713 5719 5723 5726 5730 5734 5738 5742 5745 5749 5752 5756 5760 5763 5767 5770 5774 5778 5781 5785 5787 5790 5793 5795 5797 5799 5801
5637 5638 5640 5641 5643 5645 5648 5651 5655 5661 5666 5671 5678 5685 5691 5697 5702 5707 5712 5716 5720 5724 5728 5732 5735 5739 5743 5746 5750 5753 5757 5761 5764 5769 5773 5776 5779 5781 5785 5787 5790 5792 5794
5627 5628 5629 5630 5631 5633 5635 5638 5643 5648 5654 5660 5666 5673 5680 5686 5691 5696 5701 5706 5710 5714 5718 5722 5726 5730 5733 5737 5740 5744 5748 5752 5755 5759 5763 5767 5770 5773 5776 5779 5781 5783 5786
5616 5617 5618 5619 5621 5622 5624 5627 5631 5637 5642 5648 5655 5661 5668 5674 5680 5685 5690 5695 5699 5704 5708 5711 5716 5720 5723 5727 5730 5734 5738 5742 5746 5750 5754 5758 5761 5764 5767 5770 5772 5774 5777
5606 5607 5607 5609 5610 5612 5614 5617 5621 5625 5631 5637 5643 5649 5656 5662 5668 5673 5679 5684 5689 5693 5697 5701 5705 5709 5713 5717 5720 5724 5728 5733 5736 5740 5744 5748 5751 5755 5758 5761 5764 5766 5768
5597 5597 5598 5599 5600 5601 5603 5607 5610 5614 5619 5625 5632 5638 5645 5651 5657 5662 5667 5672 5677 5682 5686 5690 5694 5698 5702 5706 5711 5714 5718 5722 5726 5730 5734 5738 5741 5745 5748 5751 5754 5757 5759
5589 5589 5589 5590 5590 5591 5593 5596 5600 5603 5608 5614 5620 5627 5633 5639 5644 5649 5654 5660 5665 5670 5675 5679 5683 5687 5691 5696 5700 5704 5708 5712 5716 5720 5724 5727 5731 5735 5738 5741 5744 5747 5750
5581 5581 5581 5581 5582 5582 5584 5586 5590 5594 5598 5603 5609 5615 5621 5627 5632 5637 5643 5648 5653 5658 5662 5667 5671 5676 5680 5685 5689 5693 5697 5701 5705 5709 5713 5717 5721 5724 5728 5731 5734 5736 5739
5572 5572 5572 5573 5573 5574 5575 5577 5581 5585 5589 5594 5599 5604 5610 5615 5620 5626 5631 5635 5641 5645 5650 5655 5659 5664 5668 5673 5677 5682 5686 5690 5694 5698 5702 5706 5710 5714 5717 5720 5723 5725 5728
5563 5563 5564 5564 5565 5565 5567 5569 5572 5576 5580 5584 5589 5593 5598 5603 5608 5613 5618 5623 5628 5632 5637 5642 5646 5651 5655 5660 5665 5669 5674 5678 5682 5686 5691 5695 5699 5702 5706 5709 5712 5714 5717
5555 5555 5555 5556 5556 5557 5559 5562 5564 5568 5571 5575 5578 5583 5588 5592 5597 5601 5606 5610 5615 5619 5624 5628 5633 5637 5642 5647 5652 5656 5661 5666 5670 5674 5679 5683 5687 5691 5694 5697 5700 5702 5705
5546 5546 5547 5547 5548 5549 5551 5553 5556 5559 5563 5566 5569 5573 5577 5581 5585 5590 5594 5598 5602 5606 5610 5614 5619 5624 5629 5634 5638 5643 5648 5653 5657 5662 5666 5671 5675 5679 5682 5685 5688 5690 5693
5538 5538 5538 5539 5540 5541 5543 5545 5548 5551 5554 5557 5560 5563 5567 5570 5575 5578 5582 5586 5590 5593 5597 5601 5605 5610 5615 5620 5625 5630 5635 5640 5644 5649 5654 5659 5663 5666 5669 5673 5675 5678 5680
5530 5530 5530 5530 5531 5533 5534 5537 5539 5542 5544 5548 5551 5554 5557 5561 5565 5568 5571 5574 5578 5580 5584 5588 5592 5597 5602 5607 5612 5616 5621 5626 5631 5636 5641 5645 5650 5653 5656 5660 5662 5665 5667
5522 5522 5522 5522 5523 5524 5526 5528 5530 5533 5536 5539 5542 5545 5548 5551 5554 5557 5560 5563 5566 5569 5572 5575 5579 5584 5589 5594 5598 5603 5608 5613 5618 5623 5628 5633 5636 5639 5643 5646 5650 5652 5654
5514 5514 5514 5514 5515 5516 5517 5520 5522 5525 5527 5530 5533 5536 5539 5541 5544 5547 5549 5552 5555 5557 5560 5563 5567 5571 5576 5581 5586 5590 5594 5599 5604 5610 5615 5619 5623 5627 5630 5634 5637 5639 5641
5506 5506 5506 5507 5507 5508 5509 5511 5514 5516 5519 5522 5524 5527 5529 5532 5534 5536 5539 5541 5544 5546 5549 5551 5555 5560 5564 5569 5573 5577 5582 5587 5593 5598 5602 5606 5610 5613 5616 5619 5622 5625 5628
5499 5498 5498 5499 5500 5501 5502 5504 5506 5508 5511 5513 5516 5518 5520 5523 5525 5527 5529 5531 5533 5536 5538 5542 5545 5549 5553 5557 5561 5565 5569 5574 5580 5585 5589 5593 5597 5600 5603 5606 5609 5612 5614
5491 5491 5491 5491 5492 5493 5495 5496 5498 5500 5502 5505 5507 5510 5511 5513 5516 5518 5519 5521 5523 5526 5528 5532 5534 5538 5541 5546 5549 5553 5558 5562 5568 5572 5576 5580 5583 5586 5589 5592 5595 5597 5599
5483 5483 5483 5484 5485 5486 5487 5488 5490 5491 5493 5496 5498 5501 5503 5505 5507 5509 5510 5512 5514 5516 5519 5522 5525 5528 5531 5535 5539 5543 5546 5550 5555 5560 5564 5567 5570 5573 5576 5578 5580 5582 5584
5476 5475 5476 5477 5477 5478 5479 5481 5482 5483 5485 5488 5490 5492 5494 5496 5498 5500 5501 5503 5505 5507 5510 5512 5515 5518 5521 5524 5528 5531 5534 5538 5542 5546 5550 5553 5557 5559 5562 5564 5566 5568 5570
5468 5468 5468 5469 5470 5471 5472 5473 5474 5476 5478 5480 5481 5483 5485 5487 5489 5491 5492 5494 5496 5498 5501 5503 5505 5508 5511 5514 5517 5520 5523 5526 5530 5533 5537 5540 5543 5546 5549 5551 5553 5554 5556
5460 5460 5461 5461 5462 5463 5464 5466 5467 5468 5470 5471 5473 5474 5476 5479 5481 5482 5484 5485 5487 5489 5491 5493 5496 5499 5501 5504 5506 5509 5513 5515 5518 5521 5525 5528 5530 5533 5535 5537 5539 5540 5542
Wind_Speed
37 39 40 41 42 43 44 44 46 48 49 48 47 47 47 46 46 46 45 44 42 40 40 39 39 39 38 37 37 36 35 34 32 32 31 31 30 29 28 27 26 25 24
37 38 39 41 43 44 44 44 45 48 49 49 48 47 47 47 47 46 46 46 44 41 41 40 40 40 39 39 38 38 37 36 35 34 33 32 31 30 30 29 28 27 27
37 38 39 40 42 43 45 45 46 47 49 50 49 48 48 48 48 47 46 46 46 44 42 41 41 40 40 40 40 39 39 38 37 36 36 35 34 32 31 30 30 29 28
37 37 38 40 42 43 45 45 46 47 49 51 50 49 49 48 47 47 47 47 46 46 43 41 42 41 41 41 41 40 40 40 39 38 37 36 36 35 34 33 32 31 30
36 37 38 39 41 42 44 45 46 48 50 51 51 51 50 49 48 48 49 48 47 47 46 44 42 42 42 42 42 42 42 42 41 39 38 37 37 37 36 36 34 33 32
35 36 37 38 40 41 42 44 45 48 50 49 51 52 52 51 49 49 50 49 48 48 48 47 45 43 42 42 43 43 43 43 42 41 40 39 38 38 37 37 36 36 35
34 35 35 37 39 40 42 43 45 47 49 49 51 52 53 53 51 50 51 49 49 48 48 47 47 45 43 42 43 44 44 44 43 42 41 40 39 39 38 38 38 37 36
32 33 34 36 37 39 42 44 45 47 49 50 51 52 53 53 53 52 52 51 50 49 49 48 48 48 47 45 44 44 45 45 45 43 42 41 40 40 39 39 39 38 37
31 32 33 34 36 38 40 43 44 45 48 49 50 51 52 52 52 52 53 53 52 52 51 50 49 49 48 47 47 47 46 46 46 45 43 42 41 40 40 40 40 40 39
29 30 31 33 34 36 38 41 43 44 47 49 50 51 51 51 51 50 50 52 53 53 52 51 50 50 49 48 49 48 48 48 48 48 47 44 43 42 42 41 41 41 41
28 30 30 31 33 35 37 39 41 43 46 48 50 51 50 50 50 50 50 51 52 53 53 52 52 51 50 50 50 49 48 49 49 49 49 47 45 44 44 43 43 42 43
30 30 30 31 31 33 35 38 39 41 43 45 48 49 50 51 51 51 50 51 52 53 53 53 53 54 53 52 52 51 50 50 50 50 49 48 46 45 45 45 45 44 44
31 30 30 30 31 32 34 35 38 40 40 43 45 47 48 49 50 51 51 50 51 53 53 55 55 55 55 55 54 53 53 52 52 52 51 50 47 46 46 46 46 46 46
31 31 31 31 31 32 33 34 36 38 39 41 43 45 47 47 49 50 51 50 51 53 54 55 55 55 55 56 56 55 54 54 54 54 53 51 50 49 47 47 48 48 48
30 30 30 31 31 32 33 35 35 36 37 38 40 43 44 45 46 48 49 49 50 52 54 56 56 56 56 56 56 56 56 56 55 54 54 52 51 51 50 49 49 50 48
29 29 29 30 31 32 33 35 35 35 36 36 37 40 42 44 45 46 47 49 50 51 52 54 56 56 57 57 56 57 56 56 56 55 55 53 52 51 52 52 51 51 50
27 28 28 29 30 32 33 34 35 36 37 37 37 38 39 41 42 44 45 47 48 49 52 52 54 55 56 56 55 56 56 57 57 56 56 54 55 54 53 53 53 52 52
27 27 28 28 29 31 33 35 35 36 36 36 38 39 39 39 40 42 44 45 48 48 49 51 52 54 55 56 55 55 56 56 57 57 56 55 55 54 53 53 53 53 52
26 26 27 27 28 30 31 33 34 35 35 36 37 37 38 38 39 41 42 44 46 47 47 48 49 51 52 54 54 55 55 56 57 57 56 55 55 55 54 54 53 52 53
25 26 26 27 28 29 30 32 33 34 34 35 37 38 38 38 38 40 42 43 45 46 46 46 47 48 50 51 52 53 54 56 56 56 55 55 54 54 54 54 53 53 53
25 24 25 26 27 28 29 31 32 33 34 36 37 37 37 38 39 39 40 42 43 44 45 45 46 47 49 49 49 50 52 54 55 55 54 54 54 53 54 54 53 53 53
25 25 24 25 25 26 27 29 31 32 34 35 36 37 37 37 37 38 38 39 40 42 42 42 42 45 46 47 47 48 50 52 53 53 52 52 52 52 52 53 53 53 53
25 25 25 25 24 25 26 28 30 31 32 34 34 35 36 37 37 37 38 38 39 40 41 42 42 43 44 45 46 47 48 50 52 52 52 52 51 51 51 52 52 52 53
25 24 24 25 25 25 26 27 29 30 31 32 33 33 34 35 36 36 36 37 37 38 39 39 41 41 42 43 45 47 47 48 49 50 51 50 50 51 51 51 52 52 52
24 24 24 25 24 24 25 27 28 29 31 32 32 33 33 33 34 35 35 35 36 37 38 38 38 40 41 42 44 45 46 46 46 47 48 48 49 50 50 50 50 51 51
24 25 25 25 24 25 25 26 28 29 30 31 31 32 34 33 33 33 34 34 35 36 36 36 37 38 40 41 41 42 44 45 46 46 47 47 48 48 48 49 49 49 49
Wind_Direction
247 246 245 244 243 241 241 239 238 236 235 234 234 235 234 235 235 236 237 237 237 237 236 235 234 235 236 237 237 237 238 237 237 238 239 240 241 242 242 242 245 247 249
248 247 245 244 242 242 241 240 239 236 235 234 233 233 234 234 235 235 236 236 236 237 237 236 235 236 236 236 237 236 237 239 239 239 239 239 240 241 242 243 245 246 248
250 249 247 245 243 242 242 242 239 236 234 233 232 232 233 233 234 235 236 237 236 237 237 237 236 236 236 236 236 236 237 238 239 239 239 240 240 240 241 243 245 246 248
251 249 247 246 244 243 243 242 239 235 234 233 232 232 233 233 235 236 236 236 237 237 237 238 237 237 237 236 236 236 235 237 239 239 240 241 240 241 241 243 245 246 247
252 251 249 247 246 245 244 241 238 234 233 233 232 232 232 233 234 235 236 236 236 237 237 237 238 238 237 236 236 236 236 237 238 239 240 241 241 242 243 244 245 246 248
254 252 251 249 247 245 244 241 237 235 234 233 233 232 232 233 234 234 236 237 237 237 238 238 238 238 238 238 237 236 236 236 237 239 240 241 242 242 243 245 246 247 249
256 254 252 248 246 245 243 241 239 235 233 233 233 233 232 233 234 234 236 236 237 237 237 238 238 238 237 237 235 234 235 236 237 238 240 241 242 243 244 245 246 247 249
257 255 253 250 247 245 242 240 240 237 234 232 232 232 232 234 235 236 236 237 237 238 238 238 239 238 238 238 236 234 236 237 238 238 239 241 242 243 243 245 245 246 248
258 255 254 252 250 246 243 239 238 238 236 234 234 233 233 234 235 236 237 237 238 238 238 239 239 240 240 242 240 238 238 238 239 239 239 240 241 242 244 245 245 247 248
260 258 256 254 251 247 244 243 241 239 237 235 235 234 233 234 234 235 235 237 237 238 238 239 240 240 241 242 240 240 240 240 240 240 239 240 242 243 244 245 247 248 250
263 260 257 255 253 249 246 244 242 240 237 235 234 234 235 234 235 236 237 237 237 238 238 239 240 240 240 241 241 241 241 241 242 241 241 243 244 245 246 246 247 250 252
263 261 258 256 254 250 247 244 240 239 237 236 235 235 236 236 237 238 238 239 238 238 239 240 240 240 241 241 241 241 241 242 242 242 243 244 245 246 247 248 249 250 252
264 261 258 256 254 251 246 243 239 238 238 236 235 235 236 236 237 238 238 239 239 239 240 240 240 241 241 242 242 243 243 243 243 243 244 245 246 248 248 249 250 251 252
265 263 260 257 254 251 246 242 241 238 236 236 235 236 236 237 237 238 239 239 240 239 239 239 240 240 241 242 243 243 244 244 244 245 246 245 247 249 250 251 251 251 252
265 263 261 258 254 249 245 241 239 236 236 237 238 237 235 237 238 239 239 239 240 240 241 241 241 241 241 242 243 244 244 244 245 245 246 246 248 250 250 251 252 252 253
264 262 260 257 251 247 245 242 241 239 238 239 238 236 237 237 238 238 240 241 242 241 242 242 242 242 242 242 243 244 244 245 245 246 246 246 248 250 251 252 253 254 255
265 261 260 258 254 250 247 245 244 243 241 240 239 237 236 237 238 240 240 242 243 243 244 244 244 243 242 242 243 244 244 245 245 246 245 246 248 250 251 252 254 256 257
267 262 259 257 255 251 248 246 247 247 245 244 243 241 240 240 241 240 242 243 243 244 245 245 244 243 243 243 243 244 245 245 245 244 245 247 248 249 250 252 255 256 258
268 264 261 258 255 250 247 247 247 248 246 245 243 241 240 241 243 243 243 244 243 243 243 243 243 243 243 243 244 244 244 244 244 245 246 247 249 249 250 253 254 256 258
266 264 261 258 257 253 249 248 247 247 246 245 245 244 244 245 246 246 245 245 244 243 243 242 243 243 244 243 244 245 244 244 244 245 247 248 249 250 251 253 255 256 258
265 262 260 259 257 252 249 247 247 246 245 246 246 247 247 247 247 248 247 245 244 244 244 243 243 243 244 244 245 246 245 244 243 245 247 248 249 251 252 254 256 257 259
265 263 262 260 257 253 250 249 248 248 246 246 246 246 247 248 249 250 249 247 246 245 245 244 244 243 243 244 245 246 245 244 244 245 247 249 250 252 254 256 257 258 259
266 263 261 260 258 254 251 249 249 248 247 247 248 248 248 248 249 250 250 249 247 246 245 245 244 245 244 243 244 245 246 246 247 247 248 249 250 252 254 256 257 259 259
265 263 260 257 255 253 251 249 248 248 247 248 249 248 248 248 250 251 251 250 249 248 248 248 247 247 246 245 245 245 247 249 250 249 249 249 250 252 254 256 257 259 259
265 263 260 256 255 254 253 251 249 248 249 250 250 249 249 249 250 251 252 251 248 249 249 250 250 249 248 246 246 246 247 248 248 249 249 250 252 253 254 255 256 258 259
265 263 261 258 255 254 253 253 251 249 249 250 251 250 248 250 251 252 252 251 250 250 250 251 251 249 248 247 247 247 247 248 249 250 251 252 252 253 253 254 256 258 258